Regional Weather Roundup
Issued by NWS Newport/Morehead, NC

Current Version | Previous Version | Text Only | Print | Product List | Glossary On
Versions: 1 2 3 4 5 6 7 8 9 10 11 12 13 14 15 16 17 18 19 20 21 22 23 24 25 26 27 28 29 30 31 32 33 34 35 36 37 38 39 40 41 42 43 44 45 46 47 48 49 50
000 ASUS42 KMHX 191322 RWRMHX WEATHER ROUNDUP FOR EASTERN NORTH CAROLINA NATIONAL WEATHER SERVICE NEWPORT/MOREHEAD CITY NC 900 AM EDT FRI SEP 19 2014 NOTE: "FAIR" INDICATES FEW OR NO CLOUDS BELOW 12,000 FEET WITH NO SIGNIFICANT WEATHER AND/OR OBSTRUCTIONS TO VISIBILITY NCZ015>017-031-032-045>047-102-103-191400- NORTH COAST CITY SKY/WX TMP DP RH WIND PRES REMARKS EDENTON SUNNY 70 63 80 NE5 30.19R ELIZABETH CITY SUNNY 70 62 76 NE7 30.18R KITTY HAWK PTSUNNY 74 57 55 E9 30.17R MANTEO SUNNY 74 58 57 E13 30.18R $$ NCZ045>047-081-094-103-104-191400- CENTRAL COAST CITY SKY/WX TMP DP RH WIND PRES REMARKS FRISCO SUNNY 73 59 61 NE13G18 30.15R SWANQUARTER N/A 72 N/A N/A NE8G14 30.12S $$ NCZ095-097-098-100-101-191400- SOUTHERN COAST CITY SKY/WX TMP DP RH WIND PRES REMARKS BEAUFORT MOSUNNY 74 65 73 NE8 30.14R CEDAR ISLAND N/A 75 N/A N/A NE20G25 30.18S JACKSONVILLE PTSUNNY 69 62 78 NE10 30.13R NEWPORT NOT AVBL PINEY ISLAND MOSUNNY 77 63 61 NE14G22 30.14R WILMINGTON PTSUNNY 70 63 78 NE8 30.12R $$ NCZ011>013-027>030-043-044-078>080-089-090>093-098-191400- COASTAL PLAIN CITY SKY/WX TMP DP RH WIND PRES REMARKS AHOSKIE MOSUNNY 66 60 81 N3 30.20R CLINTON CLOUDY 69 63 81 CALM 30.16R ELIZABETHTOWN PTSUNNY 69 62 77 CALM 30.13S GOLDSBORO CLOUDY 66 64 93 NE8 30.15R GREENVILLE MOSUNNY 66 61 82 CALM 30.19R HAVELOCK PTSUNNY 72 64 76 NE13 30.16R KENANSVILLE PTSUNNY 69 61 75 E5 30.16S KINSTON PTSUNNY 68 61 77 NE6 30.17R NEW BERN CLOUDY 73 61 65 E9G18 30.16R RICHLANDS PTSUNNY 70 61 73 NE10 30.15S ROANOKE RAPIDS NOT AVBL ROCKY MOUNT CLOUDY 67 60 78 NE5 30.18R WASHINGTON MOSUNNY 68 62 80 NE6 30.18R WHITEVILLE MOSUNNY 69 62 76 NE6 30.11S $$ AMZ130-135-150-152-154-156-158-170-250-252-270-ANZ085-086-088-633-658-670-191400- MARINE OBSERVATIONS STATION/POSITION TIME TEMP WIND PRES WAVE SWELL AIR SEA DIR/SP/G HT/PER HT/PER (UTC) (F) (DEG/KT/KT) (MB) (FT/S) (FT/S) CHESAPEAKE LIGHT 1300 71 80/ 11/ 12 1023.1 BUOY 44014 1300 73 76 60/ 14/ 17 1021.7 4/ 8 3/ 8 DUCK 1300 73 75 60/ 15/ 17 1021.5 2E DUCK 1300 N/A 3/11 2/11 OREGON INLET 1300 73 73 40/ 14/ 18 1021.5 BUOY 44095 1300 76 N/A 5/11 2/11 20E OREGON INLET NOT AVBL HATTERAS CG 1300 74 75 50/ 11/ 16 1021.4 DIAMOND BUOY 1300 76 20/ 17/ 23 1019.9 6/ 6 2/10 CAPE LOOKOUT 1300 75 30/ 18/ 21 1020.3 BEAUFORT LAB 1300 73 77 50/ 9/ 10 1020.0 30 SE NEW RIVER 1300 78 82 50/ 21/ 25 1019.3 5/ 5 2/ 9 5 SE WRIGHTSVILL 1300 74 80 80/ 19/ 21 N/A BUOY 41002 1249 79 82 70/ 16/ 17 1017.9 4/ 5 2/ 9 BUOY 41004 1300 76 83 40/ 8/ 12 1016.6 4/ 6 3/ 6 $$

USA.gov is the U.S. government's official web portal to all federal, state and local government web resources and services.